Great Falls, MT

6:34 AM MST on January 23, 2017 (GMT -0700)
Great Falls International

Weather History for KGTF - February, 2014

Change the Weather History Date:

Saturday, February 8, 2014

  Actual Average Record
Temperature  
Mean Temperature -1 °F 26 °F  
Max Temperature 6 °F 37 °F 63 °F (1987)
Min Temperature -9 °F 16 °F -34 °F (1994)
Degree Days  
Heating Degree Days 66 39  
Month to date heating degree days 552 312  
Since 1 July heating degree days 4803 4763  
Cooling Degree Days 0 0  
Month to date cooling degree days 0 0  
Year to date cooling degree days 0 0  
Moisture  
Dew Point -4 °F    
Average Humidity 84    
Maximum Humidity 92    
Minimum Humidity 76    
Precipitation  
Precipitation 0.08 in 0.01 in 0.24 in (1981)
Month to date precipitation 0.27 0.12  
Year to date precipitation 1.56 0.63  
Snow  
Snow 0.70 in 0.20 in 4.20 in (2007)
Month to date snowfall 5.2 2.2  
Since 1 July snowfall 47.2 34.0  
Snow Depth 6.00 in    
Sea Level Pressure  
Sea Level Pressure 30.26 in    
Wind  
Wind Speed 4 mph (West)    
Max Wind Speed 10 mph    
Max Gust Speed 12 mph    
Visibility 6 miles    
Events Fog , Snow    
T = Trace of Precipitation, MM = Missing Value Source: NWS Daily Summary

Daily Weather History Graph

Daily Weather History Graph

Search for Another Location

Airport or City:

Trip Planner

Search our weather history database for the weather conditions in past years. The results will help you decide how hot, cold, wet, or windy it might be!

Date:

Astronomy

Feb. 08, 2014 Rise Set
Actual Time 7:41 AM MST 5:38 PM MST
Civil Twilight 7:09 AM MST 6:10 PM MST
Nautical Twilight 6:33 AM MST 6:46 PM MST
Astronomical Twilight 5:57 AM MST 7:22 PM MST
Moon 12:28 PM MST (2/8) 3:03 AM MST (2/8)
Length of Visible Light 11h 00m
Length of Day
9h 56m
Waxing Gibbous, 69% of the Moon is Illuminated
Feb 8
Waxing Gibbous
Feb 14
Full
Feb 22
Last Quarter
Mar 1
New
Mar 8
First Quarter

Hourly Weather History & Observations

Time (MST) Temp. Windchill Dew Point Humidity Pressure Visibility Wind Dir Wind Speed Gust Speed Precip Events Conditions
12:53 AM -7.1 °F -19.9 °F -9.9 °F 87% 30.17 in 10.0 mi West 5.8 mph - N/A   Overcast
1:53 AM -6.0 °F -18.6 °F -9.9 °F 83% 30.18 in 10.0 mi West 5.8 mph - N/A   Mostly Cloudy
2:53 AM -2.9 °F -15.0 °F -8.0 °F 79% 30.19 in 10.0 mi WSW 5.8 mph - N/A   Overcast
3:53 AM -2.0 °F -12.2 °F -7.1 °F 79% 30.20 in 10.0 mi West 4.6 mph - N/A   Overcast
4:53 AM -0.9 °F -12.7 °F -5.1 °F 83% 30.22 in 3.0 mi SW 5.8 mph - 0.00 in Snow Light Snow
5:23 AM -0.4 °F -13.4 °F -4.0 °F 85% 29.96 in 2.5 mi WSW 6.9 mph - 0.00 in Snow Light Snow
5:48 AM -0.4 °F -14.7 °F -4.0 °F 85% 29.97 in 1.8 mi SW 8.1 mph - 0.00 in Snow Light Snow
5:53 AM -0.9 °F -14.1 °F -4.0 °F 87% 30.26 in 1.5 mi SW 6.9 mph - 0.01 in Snow Light Snow
6:21 AM -0.4 °F -12.0 °F -4.0 °F 85% 29.98 in 1.0 mi SW 5.8 mph - 0.00 in Snow Light Snow
6:53 AM -0.0 °F -13.0 °F -4.0 °F 83% 30.29 in 1.0 mi SW 6.9 mph - 0.01 in Snow Light Snow
7:06 AM -0.4 °F -14.7 °F -2.2 °F 92% 30.01 in 1.0 mi WSW 8.1 mph - 0.00 in Snow Light Snow
7:28 AM 1.4 °F -11.3 °F -2.2 °F 85% 30.03 in 0.8 mi West 6.9 mph - 0.01 in Snow Light Snow
7:53 AM 1.0 °F -10.3 °F -2.9 °F 83% 30.34 in 0.5 mi West 5.8 mph - 0.02 in Fog , Snow Light Snow
8:26 AM 1.4 °F -8.3 °F -2.2 °F 85% 30.07 in 0.8 mi West 4.6 mph - 0.00 in Snow Light Snow
8:53 AM 1.0 °F -8.7 °F -2.0 °F 87% 30.38 in 0.8 mi West 4.6 mph - 0.01 in Snow Light Snow
9:24 AM 1.4 °F -8.3 °F -2.2 °F 85% 30.10 in 1.0 mi WNW 4.6 mph - 0.01 in Snow Light Snow
9:42 AM 1.4 °F -8.3 °F -2.2 °F 85% 30.11 in 1.5 mi West 4.6 mph - 0.01 in Snow Light Snow
9:53 AM 1.9 °F -7.6 °F -2.0 °F 83% 30.41 in 1.8 mi West 4.6 mph - 0.01 in Snow Light Snow
10:07 AM 1.4 °F -9.9 °F -2.2 °F 85% 30.12 in 1.2 mi WSW 5.8 mph - 0.00 in Snow Light Snow
10:26 AM 3.2 °F -11.3 °F -0.4 °F 85% 30.13 in 1.2 mi WNW 9.2 mph - 0.01 in Snow Light Snow
10:36 AM 3.2 °F -10.3 °F -2.2 °F 78% 30.13 in 1.8 mi WNW 8.1 mph - 0.01 in Snow Light Snow
10:53 AM 3.0 °F -9.3 °F -0.9 °F 84% 30.43 in 2.0 mi NW 6.9 mph - 0.01 in Snow Light Snow
11:09 AM 1.4 °F -12.5 °F -2.2 °F 85% 30.15 in 3.0 mi NW 8.1 mph - 0.00 in Snow Light Snow
11:39 AM 3.2 °F -7.8 °F -2.2 °F 78% 30.15 in 5.0 mi WNW 5.8 mph - 0.00 in   Haze
11:53 AM 3.0 °F -9.3 °F -2.0 °F 80% 30.45 in 4.0 mi WNW 6.9 mph - 0.00 in   Haze
12:39 PM 3.2 °F -10.3 °F -2.2 °F 78% 30.15 in 10.0 mi WNW 8.1 mph - 0.01 in   Overcast
12:53 PM 3.9 °F -8.2 °F -2.0 °F 76% 30.46 in 9.0 mi WNW 6.9 mph - 0.01 in   Overcast
1:15 PM 3.2 °F -6.2 °F -2.2 °F 78% 30.16 in 5.0 mi West 4.6 mph - 0.00 in   Haze
1:53 PM 3.9 °F -3.4 °F -2.0 °F 76% 30.46 in 10.0 mi WNW 3.5 mph - 0.00 in   Overcast
2:53 PM 5.0 °F -2.1 °F -2.9 °F 70% 30.47 in 10.0 mi WNW 3.5 mph - N/A   Mostly Cloudy
3:53 PM 3.0 °F - -2.9 °F 76% 30.48 in 10.0 mi Calm Calm - N/A   Mostly Cloudy
4:13 PM 1.4 °F - -4.0 °F 78% 30.20 in 10.0 mi Calm Calm - N/A   Partly Cloudy
4:53 PM -0.0 °F - -4.0 °F 83% 30.50 in 10.0 mi Calm Calm - N/A   Mostly Cloudy
5:53 PM -0.9 °F - -5.1 °F 83% 30.50 in 10.0 mi Calm Calm - N/A   Overcast
6:18 PM -2.2 °F - -5.8 °F 85% 30.21 in 10.0 mi Calm Calm - N/A   Overcast
6:27 PM -2.2 °F - -5.8 °F 85% 30.21 in 10.0 mi Calm Calm - N/A   Overcast
6:53 PM -2.9 °F - -6.0 °F 87% 30.51 in 10.0 mi Calm Calm - N/A   Scattered Clouds
7:32 PM -2.2 °F -10.4 °F -5.8 °F 85% 30.21 in 10.0 mi South 3.5 mph - N/A   Mostly Cloudy
7:53 PM -0.9 °F -8.9 °F -5.1 °F 83% 30.49 in 10.0 mi SSW 3.5 mph - N/A   Overcast
8:53 PM -0.0 °F - -4.0 °F 83% 30.48 in 10.0 mi Calm Calm - N/A   Overcast
9:53 PM -0.9 °F - -4.0 °F 87% 30.48 in 10.0 mi Calm Calm - 0.00 in   Overcast
10:53 PM -2.9 °F - -6.0 °F 87% 30.47 in 10.0 mi Calm Calm - 0.00 in   Overcast
11:53 PM -2.0 °F - -5.1 °F 87% 30.45 in 10.0 mi Calm Calm - N/A   Overcast